Temp
-7 -7 -6 -6 -6 -6 -7 -7 -7 -7 -7 -6 -6 -6 -6 -6 -6 -6 -6 -6 -6 -6 -7 -7 -6 -6 -6 -6 -6 -6 -6 -6 -5 -5 -4 -4 -4 -4 -4 -4 -4 -5 -5 -5 -4
-7 -7 -7 -7 -6 -6 -6 -6 -6 -6 -7 -6 -6 -6 -6 -6 -5 -6 -6 -6 -6 -6 -7 -7 -7 -6 -6 -6 -6 -6 -6 -5 -5 -5 -4 -4 -4 -4 -4 -4 -4 -4 -4 -5 -4
-7 -7 -7 -7 -7 -7 -6 -6 -6 -6 -6 -6 -6 -7 -6 -6 -6 -6 -5 -6 -6 -6 -6 -6 -6 -6 -6 -6 -6 -6 -6 -6 -5 -5 -4 -4 -4 -4 -4 -4 -4 -3 -3 -4 -5
-7 -7 -7 -7 -7 -6 -6 -7 -6 -6 -6 -6 -6 -6 -7 -6 -6 -6 -6 -6 -6 -6 -6 -6 -7 -7 -7 -7 -6 -6 -6 -6 -5 -5 -5 -4 -4 -4 -4 -4 -4 -4 -4 -3 -4
-7 -7 -7 -7 -7 -7 -7 -6 -6 -6 -6 -6 -6 -6 -6 -7 -6 -6 -6 -6 -6 -6 -6 -6 -7 -7 -7 -7 -7 -6 -6 -6 -6 -5 -5 -5 -4 -4 -4 -4 -4 -4 -4 -4 -3
-7 -7 -7 -7 -7 -7 -7 -7 -7 -6 -6 -6 -6 -6 -6 -6 -6 -6 -6 -6 -6 -6 -6 -6 -7 -7 -7 -7 -7 -7 -6 -6 -6 -6 -5 -5 -4 -4 -4 -4 -4 -4 -4 -4 -4
-7 -7 -7 -7 -7 -7 -7 -7 -7 -6 -6 -6 -6 -6 -6 -6 -6 -6 -6 -6 -6 -6 -6 -6 -6 -7 -7 -6 -6 -6 -6 -6 -6 -6 -6 -5 -5 -4 -5 -4 -4 -4 -4 -4 -4
-8 -8 -8 -8 -8 -8 -8 -7 -7 -7 -7 -7 -6 -6 -6 -6 -6 -6 -6 -6 -6 -6 -6 -6 -6 -7 -7 -6 -6 -6 -6 -6 -7 -7 -6 -5 -6 -5 -5 -4 -4 -4 -4 -4 -4
-10 -10 -9 -9 -9 -9 -9 -8 -8 -8 -8 -7 -7 -6 -6 -6 -6 -6 -6 -6 -7 -6 -6 -6 -6 -7 -7 -7 -6 -6 -7 -7 -7 -7 -6 -6 -8 -5 -5 -4 -4 -4 -4 -4 -4
-10 -10 -11 -10 -10 -10 -9 -9 -9 -9 -9 -8 -8 -7 -7 -6 -6 -6 -6 -6 -7 -7 -7 -6 -6 -6 -7 -7 -6 -6 -7 -7 -7 -7 -7 -6 -6 -5 -5 -4 -4 -4 -4 -4 -4
-10 -10 -10 -10 -10 -10 -10 -10 -11 -10 -10 -10 -9 -9 -8 -7 -7 -7 -7 -6 -7 -7 -7 -7 -6 -6 -7 -7 -8 -7 -7 -8 -8 -7 -7 -8 -7 -6 -5 -4 -4 -4 -4 -4 -4
-11 -11 -11 -10 -10 -10 -10 -10 -11 -11 -11 -11 -11 -10 -10 -9 -8 -8 -8 -8 -7 -7 -7 -7 -7 -7 -7 -7 -7 -7 -7 -8 -7 -7 -7 -8 -8 -7 -5 -4 -4 -4 -4 -4 -4
-10 -10 -10 -10 -10 -11 -11 -11 -12 -12 -12 -12 -12 -11 -11 -10 -10 -10 -10 -9 -8 -8 -7 -7 -8 -7 -7 -7 -7 -7 -7 -8 -8 -8 -7 -8 -9 -7 -6 -5 -4 -4 -4 -4 -4
-10 -10 -10 -10 -11 -11 -11 -12 -12 -12 -13 -12 -12 -12 -11 -12 -11 -11 -11 -10 -9 -8 -8 -8 -8 -8 -7 -7 -7 -7 -7 -8 -7 -7 -8 -8 -8 -7 -6 -6 -4 -4 -4 -4 -4
-11 -11 -11 -11 -11 -12 -12 -12 -13 -13 -13 -12 -12 -12 -12 -12 -12 -12 -12 -11 -11 -10 -8 -8 -8 -8 -7 -7 -7 -7 -7 -8 -8 -8 -9 -7 -8 -6 -6 -6 -5 -4 -4 -4 -4
-11 -11 -11 -12 -12 -13 -13 -14 -14 -13 -14 -13 -13 -12 -13 -12 -13 -12 -12 -12 -12 -11 -10 -9 -8 -9 -8 -8 -7 -8 -7 -7 -8 -8 -9 -8 -8 -7 -6 -6 -6 -5 -4 -4 -4
-11 -11 -12 -12 -13 -13 -14 -14 -14 -14 -14 -13 -13 -13 -13 -13 -13 -13 -13 -13 -13 -12 -11 -10 -8 -9 -8 -8 -8 -8 -8 -8 -8 -9 -8 -9 -7 -7 -7 -7 -6 -6 -5 -4 -4
-12 -12 -12 -12 -13 -14 -14 -15 -15 -14 -14 -14 -13 -13 -13 -13 -14 -14 -14 -14 -13 -13 -12 -11 -10 -9 -9 -8 -8 -7 -8 -8 -8 -9 -9 -8 -6 -6 -7 -7 -7 -6 -6 -5 -4
-12 -13 -13 -13 -14 -14 -14 -15 -15 -15 -14 -14 -14 -14 -13 -14 -14 -14 -14 -14 -14 -13 -13 -13 -12 -10 -9 -9 -8 -8 -8 -8 -9 -9 -8 -8 -6 -6 -7 -7 -7 -7 -7 -5 -4
-13 -13 -14 -14 -15 -15 -15 -15 -15 -15 -15 -14 -14 -14 -14 -14 -14 -15 -14 -14 -14 -14 -13 -13 -12 -11 -10 -9 -9 -8 -8 -8 -8 -9 -9 -8 -8 -6 -7 -7 -7 -7 -6 -6 -5
-13 -13 -14 -15 -15 -15 -16 -15 -15 -15 -15 -15 -14 -14 -14 -14 -14 -15 -15 -15 -15 -14 -14 -13 -13 -13 -11 -10 -9 -9 -7 -8 -8 -7 -9 -8 -8 -8 -8 -8 -7 -7 -7 -6 -5
-14 -14 -14 -15 -15 -15 -16 -15 -15 -15 -15 -15 -15 -14 -14 -14 -14 -15 -15 -15 -15 -15 -15 -14 -13 -13 -11 -11 -10 -10 -9 -8 -8 -8 -8 -9 -7 -8 -8 -8 -8 -7 -6 -6 -6
-14 -14 -15 -15 -15 -16 -16 -15 -15 -15 -15 -15 -15 -15 -15 -15 -15 -14 -15 -15 -15 -15 -15 -15 -14 -13 -13 -11 -10 -10 -9 -9 -8 -9 -8 -7 -9 -7 -8 -8 -9 -7 -6 -6 -6
-14 -15 -15 -15 -16 -16 -16 -15 -15 -16 -15 -15 -15 -15 -15 -15 -15 -15 -14 -15 -15 -15 -15 -16 -15 -14 -14 -13 -12 -11 -10 -9 -9 -9 -8 -7 -9 -7 -7 -8 -7 -7 -7 -6 -6
-15 -15 -15 -15 -16 -16 -16 -16 -15 -15 -15 -15 -15 -15 -15 -15 -15 -15 -15 -14 -15 -15 -15 -15 -15 -15 -14 -13 -12 -10 -10 -10 -9 -8 -8 -9 -8 -8 -8 -8 -8 -8 -7 -7 -6
-15 -15 -15 -16 -16 -16 -16 -16 -16 -15 -15 -15 -16 -16 -16 -16 -15 -15 -15 -15 -14 -15 -15 -15 -15 -15 -15 -14 -13 -11 -10 -10 -10 -9 -9 -8 -10 -7 -8 -8 -8 -8 -7 -7 -7
-15 -16 -16 -16 -16 -16 -16 -16 -16 -16 -17 -18 -18 -18 -18 -17 -16 -15 -15 -15 -15 -15 -15 -15 -15 -15 -15 -15 -13 -12 -11 -11 -10 -10 -9 -8 -8 -6 -7 -8 -9 -7 -8 -7 -7
Height
5879 5878 5877 5875 5874 5873 5873 5873 5874 5874 5874 5874 5875 5877 5879 5880 5882 5883 5885 5889 5891 5894 5895 5897 5900 5902 5905 5906 5908 5909 5911 5913 5912 5913 5913 5912 5912 5911 5910 5910 5911 5911 5912 5914 5913
5875 5873 5871 5870 5870 5869 5868 5869 5869 5870 5870 5871 5872 5873 5875 5876 5878 5880 5883 5885 5888 5889 5892 5894 5897 5899 5904 5906 5908 5908 5911 5912 5912 5913 5912 5913 5913 5913 5912 5912 5913 5912 5913 5914 5916
5869 5868 5866 5865 5864 5863 5862 5862 5862 5864 5865 5867 5868 5869 5871 5872 5873 5876 5878 5881 5884 5887 5890 5893 5896 5899 5901 5904 5907 5908 5911 5912 5912 5913 5914 5914 5914 5913 5913 5913 5913 5915 5915 5914 5917
5864 5861 5859 5858 5857 5857 5856 5856 5855 5856 5858 5861 5863 5864 5866 5867 5869 5870 5874 5877 5880 5884 5886 5890 5893 5896 5898 5902 5905 5907 5909 5911 5912 5914 5915 5915 5915 5914 5913 5914 5914 5915 5916 5917 5917
5857 5854 5852 5851 5849 5849 5849 5849 5849 5849 5851 5853 5856 5858 5859 5862 5863 5865 5869 5872 5875 5880 5883 5887 5890 5892 5895 5898 5903 5905 5908 5910 5911 5913 5915 5916 5915 5916 5915 5914 5915 5914 5916 5917 5919
5848 5846 5843 5842 5840 5840 5840 5840 5841 5841 5843 5845 5848 5851 5853 5854 5857 5860 5863 5867 5870 5874 5878 5882 5886 5889 5892 5895 5899 5903 5907 5909 5910 5911 5913 5915 5915 5916 5915 5914 5915 5915 5916 5917 5920
5838 5835 5833 5831 5830 5829 5830 5831 5831 5832 5834 5836 5839 5842 5845 5847 5850 5854 5857 5861 5865 5868 5873 5877 5881 5886 5890 5894 5897 5901 5906 5908 5909 5910 5912 5914 5915 5916 5917 5913 5915 5916 5916 5918 5920
5826 5823 5821 5820 5818 5819 5819 5820 5821 5822 5824 5826 5829 5833 5836 5839 5842 5847 5851 5854 5859 5863 5866 5871 5877 5880 5885 5892 5897 5899 5903 5906 5908 5909 5911 5915 5916 5915 5916 5916 5915 5916 5916 5918 5920
5814 5811 5810 5808 5807 5807 5809 5810 5811 5813 5815 5817 5820 5823 5826 5829 5833 5839 5843 5847 5852 5856 5861 5866 5871 5877 5882 5887 5892 5896 5901 5904 5907 5909 5911 5914 5916 5915 5916 5917 5915 5916 5916 5919 5921
5808 5803 5801 5800 5799 5799 5800 5801 5802 5804 5806 5807 5810 5814 5816 5819 5823 5828 5835 5839 5844 5849 5855 5860 5866 5871 5878 5881 5888 5895 5898 5902 5905 5908 5908 5911 5912 5914 5915 5916 5915 5916 5917 5919 5921
5801 5799 5796 5794 5793 5793 5794 5795 5798 5798 5799 5800 5802 5804 5806 5808 5812 5818 5824 5830 5836 5842 5847 5853 5859 5865 5873 5879 5886 5886 5892 5897 5901 5904 5907 5908 5910 5912 5914 5914 5915 5915 5916 5919 5920
5799 5796 5793 5791 5789 5788 5787 5789 5790 5792 5792 5794 5795 5796 5799 5800 5802 5807 5813 5820 5826 5835 5840 5847 5853 5862 5867 5873 5878 5884 5889 5893 5896 5902 5905 5909 5910 5910 5913 5913 5914 5914 5917 5919 5920
5795 5792 5789 5787 5785 5783 5782 5783 5784 5785 5786 5788 5789 5791 5792 5794 5795 5799 5803 5808 5816 5824 5831 5840 5848 5850 5857 5865 5871 5878 5884 5888 5893 5897 5901 5905 5905 5908 5911 5914 5913 5914 5915 5918 5919
5789 5786 5783 5781 5779 5777 5777 5776 5777 5779 5780 5784 5784 5785 5786 5786 5789 5792 5795 5801 5808 5814 5823 5831 5835 5842 5850 5857 5866 5872 5879 5881 5886 5893 5899 5901 5908 5905 5907 5911 5912 5914 5914 5916 5919
5784 5780 5778 5773 5771 5770 5769 5769 5770 5773 5775 5776 5778 5779 5780 5783 5784 5785 5788 5793 5799 5806 5813 5823 5828 5836 5842 5850 5859 5869 5870 5877 5881 5886 5895 5896 5901 5902 5904 5907 5911 5913 5914 5915 5917
5779 5775 5770 5767 5765 5763 5762 5763 5764 5768 5766 5770 5772 5773 5774 5776 5778 5780 5782 5786 5791 5798 5804 5811 5819 5827 5834 5842 5849 5859 5863 5870 5875 5881 5884 5894 5898 5904 5902 5906 5909 5911 5912 5913 5916
5774 5770 5765 5761 5759 5758 5757 5758 5761 5761 5763 5765 5766 5767 5768 5770 5772 5774 5776 5779 5783 5789 5796 5803 5810 5817 5827 5833 5842 5847 5858 5864 5869 5872 5879 5887 5892 5901 5899 5903 5905 5907 5909 5911 5913
5767 5764 5759 5755 5753 5753 5753 5755 5755 5755 5756 5758 5759 5761 5762 5764 5766 5768 5771 5772 5776 5781 5788 5794 5802 5810 5820 5827 5835 5840 5850 5859 5863 5870 5878 5880 5885 5893 5896 5899 5902 5904 5907 5908 5911
5762 5759 5755 5751 5749 5749 5750 5750 5749 5750 5752 5752 5753 5754 5756 5757 5760 5761 5764 5767 5770 5775 5781 5784 5792 5799 5811 5820 5826 5834 5839 5854 5862 5867 5873 5877 5882 5886 5893 5897 5899 5901 5904 5906 5908
5758 5754 5751 5747 5745 5745 5745 5745 5744 5745 5746 5747 5747 5748 5749 5751 5753 5754 5757 5761 5764 5768 5772 5777 5786 5791 5802 5812 5818 5825 5836 5843 5845 5855 5864 5873 5879 5883 5889 5894 5896 5899 5902 5903 5907
5754 5751 5747 5744 5742 5741 5741 5740 5739 5739 5740 5741 5741 5741 5742 5744 5745 5747 5750 5755 5758 5761 5765 5770 5778 5787 5791 5802 5811 5817 5826 5833 5844 5852 5861 5869 5877 5877 5883 5888 5892 5896 5897 5899 5902
5750 5747 5743 5740 5739 5736 5736 5735 5734 5733 5733 5734 5734 5734 5735 5737 5738 5740 5742 5747 5751 5755 5758 5763 5770 5776 5785 5793 5801 5808 5818 5826 5834 5842 5851 5863 5877 5871 5876 5881 5885 5887 5891 5895 5898
5745 5741 5738 5735 5733 5731 5730 5729 5727 5726 5726 5726 5726 5727 5728 5729 5732 5732 5735 5739 5744 5748 5752 5757 5763 5771 5777 5783 5792 5800 5809 5816 5826 5837 5842 5855 5866 5866 5871 5873 5878 5882 5887 5892 5896
5740 5737 5733 5730 5727 5725 5722 5721 5718 5717 5716 5716 5716 5718 5719 5720 5722 5725 5727 5731 5736 5741 5747 5751 5757 5763 5774 5779 5780 5789 5800 5807 5817 5825 5835 5846 5858 5864 5867 5867 5872 5877 5884 5888 5893
5735 5732 5727 5724 5720 5718 5715 5712 5709 5707 5705 5704 5703 5704 5706 5710 5712 5714 5718 5722 5727 5733 5739 5745 5750 5755 5761 5768 5775 5782 5792 5799 5808 5818 5828 5843 5847 5857 5861 5865 5868 5874 5880 5885 5890
5731 5727 5722 5718 5714 5712 5708 5704 5700 5695 5691 5687 5686 5688 5690 5694 5699 5703 5708 5712 5717 5724 5730 5737 5744 5749 5755 5760 5767 5774 5783 5791 5802 5810 5820 5830 5837 5844 5856 5861 5865 5868 5875 5881 5886
5724 5720 5717 5713 5709 5705 5700 5694 5687 5679 5672 5667 5667 5669 5673 5678 5685 5691 5695 5702 5708 5713 5720 5728 5736 5743 5749 5752 5759 5766 5774 5783 5796 5802 5812 5822 5830 5843 5850 5857 5862 5865 5869 5876 5883
Wind_Speed
17 17 17 17 17 18 18 17 15 14 14 14 14 16 19 22 21 18 15 13 11 11 11 13 18 17 14 11 8 8 3 2 1 4 2 6 8 10 13 13 13 16 17 16 20
23 23 23 22 21 20 19 19 20 18 18 17 15 16 16 19 22 24 21 16 15 15 16 17 17 20 18 13 10 10 10 6 1 3 7 8 9 10 13 14 14 15 19 17 16
27 27 27 28 26 25 23 22 21 21 22 21 19 18 18 18 20 23 25 23 19 18 17 15 16 18 18 15 12 14 13 7 3 3 7 9 9 11 13 14 14 13 16 18 14
29 30 29 28 28 26 27 24 23 22 21 22 22 22 21 20 22 21 23 27 26 20 20 17 16 18 18 20 17 17 14 11 4 4 4 10 9 10 13 13 14 15 13 14 17
28 28 28 31 32 31 29 29 30 28 26 24 23 25 25 24 24 22 22 25 29 27 23 21 21 25 22 21 21 20 17 14 8 6 5 8 11 11 13 13 12 16 16 15 12
30 31 31 30 29 30 30 31 32 32 33 31 28 26 28 28 28 25 24 24 27 31 30 26 25 28 28 25 24 23 18 14 11 9 9 12 12 11 12 13 12 13 17 17 13
31 32 34 34 33 32 32 32 33 35 36 35 34 29 28 33 30 29 27 26 26 30 33 32 29 29 29 27 24 23 22 16 12 12 11 12 11 11 10 14 13 11 15 17 15
37 37 36 35 35 34 33 32 33 35 34 34 34 35 34 33 33 32 32 30 28 29 33 36 32 33 31 25 24 21 21 19 16 14 13 12 8 12 10 12 13 12 13 18 18
37 34 33 34 35 33 32 32 30 31 31 32 32 34 36 37 35 36 35 35 32 32 31 36 37 35 35 30 29 26 21 21 20 15 11 14 15 13 12 11 14 13 11 13 17
27 26 22 24 26 28 28 29 29 29 26 25 28 29 31 32 35 38 38 39 37 35 34 34 38 38 35 36 31 28 26 24 24 18 14 14 15 15 16 13 14 14 12 11 17
23 20 15 18 20 22 24 25 25 25 24 23 23 23 24 29 34 37 40 42 43 40 38 34 36 41 37 36 34 38 36 31 31 23 16 13 15 17 18 17 15 16 15 13 13
23 22 17 15 17 18 19 22 24 25 24 20 19 19 19 21 28 36 41 44 45 44 41 39 35 37 42 40 40 35 35 35 33 30 24 18 17 19 20 20 16 16 17 16 14
26 26 22 18 17 18 21 23 24 24 23 19 14 17 17 16 17 29 39 45 46 47 46 40 36 41 46 44 43 40 37 39 35 34 28 24 24 20 21 21 16 17 19 19 17
26 26 24 22 20 19 22 23 25 25 25 20 15 15 13 13 16 20 35 43 48 50 47 44 44 40 44 47 44 41 39 41 39 33 26 27 20 24 22 21 20 18 18 20 19
27 23 25 24 21 19 20 22 25 25 25 22 15 13 15 16 16 18 29 39 45 50 53 48 47 42 44 47 47 43 44 40 37 38 29 30 27 15 25 21 21 18 16 19 21
26 26 25 24 23 18 17 16 18 23 27 21 17 17 18 17 17 16 23 35 42 48 53 52 50 48 45 46 51 50 45 42 40 36 33 27 29 21 24 19 18 21 19 16 19
27 26 26 26 21 17 15 14 17 22 22 22 20 18 17 18 19 18 18 29 37 43 50 53 53 52 48 47 50 55 48 45 44 40 33 29 30 23 20 19 22 21 21 18 17
26 25 25 24 18 12 13 12 16 19 20 19 17 18 17 19 21 21 21 22 34 41 44 51 53 53 51 49 50 56 53 45 42 35 28 32 33 28 21 25 21 18 20 20 16
25 25 23 20 14 12 15 15 13 17 16 18 18 19 19 20 24 24 24 24 24 36 42 45 49 52 53 51 52 55 58 51 29 32 31 35 35 29 27 28 23 21 18 20 17
24 23 20 18 14 13 12 13 13 14 16 18 18 19 19 19 26 29 28 26 23 27 39 48 46 53 53 53 51 54 57 56 57 37 37 31 28 29 27 27 27 25 23 20 18
23 22 19 16 14 12 14 14 15 15 16 17 18 20 18 19 26 31 31 28 25 22 31 41 44 39 54 55 53 54 58 60 54 52 30 29 26 28 30 26 25 26 26 20 22
23 23 21 17 15 12 14 15 17 18 18 18 19 20 19 18 23 30 34 31 28 24 25 29 39 41 51 51 55 54 53 59 58 53 51 28 23 30 31 27 24 27 27 25 22
23 22 20 18 16 16 17 20 20 21 21 21 22 23 23 21 22 27 32 35 32 29 26 24 31 41 40 53 56 57 55 57 57 51 49 48 29 27 33 32 25 31 29 26 25
22 21 21 20 18 21 23 24 23 21 23 25 28 29 28 28 27 27 30 34 36 34 31 26 28 37 31 38 51 58 58 57 58 58 55 48 40 32 32 34 32 31 29 29 25
22 22 24 22 21 19 18 20 23 27 29 31 31 33 35 34 34 33 32 33 36 36 35 32 29 33 35 43 51 57 59 58 57 59 54 41 45 42 38 30 24 24 25 25 23
23 24 23 22 19 19 23 28 32 35 36 38 40 37 38 39 38 38 36 37 36 37 38 35 34 31 32 37 50 55 57 58 54 55 56 56 39 50 41 30 31 28 21 22 20
24 23 23 19 19 25 28 30 31 38 40 38 38 38 37 40 40 41 41 41 40 38 39 39 35 33 31 38 42 53 55 56 53 53 54 57 56 39 46 37 29 27 19 23 22
Wind_Direction
311 308 304 301 295 287 281 278 275 271 267 254 253 249 243 239 236 239 239 239 231 211 200 197 190 194 183 171 182 187 147 143 126 128 161 135 136 135 130 138 142 141 138 144 137
304 300 299 293 289 286 280 274 270 265 263 263 258 249 246 242 238 232 237 231 227 217 203 197 194 200 194 184 181 196 161 170 168 187 161 157 142 135 132 140 149 149 141 149 145
298 295 290 292 290 281 278 274 270 263 260 259 256 257 250 241 240 232 230 228 223 226 221 214 203 197 201 195 180 166 164 164 137 165 178 165 159 148 143 146 150 158 149 145 155
297 296 289 288 285 283 277 270 266 268 264 258 255 254 251 248 241 236 229 227 223 218 222 213 205 197 207 200 185 187 183 181 160 113 183 171 168 161 149 152 154 158 161 156 149
297 291 288 286 283 282 276 273 268 266 264 263 256 251 253 247 245 237 229 226 224 219 217 212 199 198 203 204 194 192 197 207 226 233 233 201 182 175 156 156 163 164 169 161 169
297 287 288 284 280 276 274 270 268 268 266 262 259 252 245 247 243 241 234 226 225 221 217 214 204 202 204 206 202 196 198 209 230 238 221 189 181 182 170 156 167 172 173 165 174
291 282 278 276 275 275 270 266 266 263 267 265 259 256 247 243 245 241 240 232 224 224 220 218 206 206 206 206 206 203 200 197 214 218 207 194 188 193 194 163 167 175 181 175 169
290 279 275 273 271 270 266 265 263 262 262 259 256 254 250 245 240 239 239 236 229 222 222 219 214 208 207 206 204 209 203 195 208 210 209 193 222 198 204 180 168 173 178 181 181
294 284 278 275 273 267 265 264 262 258 255 254 254 252 247 245 241 236 233 233 232 226 222 220 214 213 209 206 199 208 197 202 197 196 197 197 206 199 202 199 169 174 173 191 185
319 306 294 283 279 267 262 259 261 260 259 251 250 248 244 241 238 233 230 229 228 228 223 221 216 216 210 207 202 203 207 200 194 197 199 205 207 208 200 199 178 173 174 181 191
320 325 324 302 289 277 266 260 259 259 259 256 253 252 250 244 240 231 226 224 224 226 223 220 218 215 216 213 205 199 205 209 205 204 204 213 225 226 209 199 186 180 181 185 182
331 327 320 300 287 276 266 258 253 258 265 262 258 256 248 241 237 228 222 220 220 221 223 219 216 212 213 211 212 209 208 214 219 211 217 217 223 234 230 208 198 185 192 190 187
333 327 322 313 299 281 267 259 248 248 260 264 252 244 250 245 248 232 221 217 215 215 219 217 211 210 211 211 212 211 207 217 223 220 220 213 227 231 233 230 207 200 195 197 194
334 327 321 316 302 288 265 259 246 243 248 246 247 248 250 259 255 240 222 217 213 212 213 213 214 209 210 211 211 214 212 215 220 224 229 225 228 239 230 234 218 218 203 200 198
334 329 327 318 308 287 270 254 241 236 238 246 252 260 254 251 257 245 226 218 216 213 211 211 214 208 208 210 210 211 215 216 219 224 218 226 215 229 234 222 227 220 221 214 204
336 332 330 324 317 300 274 260 239 222 227 239 248 259 258 248 247 243 231 221 218 215 212 210 210 208 206 209 210 211 212 214 219 222 229 219 222 224 238 223 229 231 225 223 219
335 332 328 322 309 296 276 253 237 229 234 241 249 249 248 244 240 239 235 224 220 218 214 213 211 208 204 207 208 211 212 215 219 222 223 223 218 202 232 220 212 220 222 223 227
331 329 326 324 305 276 270 263 243 235 238 239 237 238 240 242 237 233 231 230 221 218 215 218 217 210 206 206 209 210 210 212 220 221 225 223 212 213 201 201 206 215 226 226 232
331 332 332 332 306 259 259 259 260 245 242 238 244 241 238 238 234 235 229 234 228 220 217 218 215 212 208 207 207 209 211 208 214 217 214 235 219 214 194 193 204 220 231 231 223
332 333 330 333 316 277 271 263 260 255 252 252 254 251 240 236 231 230 230 231 230 224 221 220 218 217 211 207 209 209 211 210 213 208 216 210 225 217 192 202 213 229 235 234 219
333 330 325 324 322 293 279 276 274 268 264 263 261 256 245 232 233 230 230 229 229 224 220 222 217 219 214 209 209 212 212 211 218 220 218 216 227 220 190 190 206 217 236 230 218
330 327 323 313 309 307 289 281 274 272 266 266 263 260 253 240 235 233 230 228 228 221 220 218 216 211 214 213 209 212 213 214 216 215 217 205 214 241 215 191 199 209 228 216 214
326 326 323 317 304 294 286 286 280 273 270 265 259 255 255 249 236 236 234 229 225 222 220 213 210 209 212 215 211 214 214 213 216 217 224 218 204 215 206 190 193 204 215 218 216
325 324 321 313 305 301 296 293 286 282 279 272 262 254 250 250 245 236 236 233 227 221 219 214 209 209 202 211 213 213 214 216 215 218 218 218 210 207 203 218 196 190 203 215 220
325 324 321 318 314 311 311 302 289 290 282 274 266 256 247 242 244 240 234 235 231 224 219 218 209 206 207 209 213 215 213 216 217 218 218 218 223 211 209 220 221 186 198 208 225
326 325 322 322 318 318 320 313 303 295 286 271 264 255 246 238 233 236 234 229 233 229 223 216 215 206 206 210 214 217 215 218 218 219 220 218 217 212 203 211 221 184 185 201 211
327 328 326 326 330 332 325 320 308 296 292 281 264 255 244 236 229 227 229 229 229 229 227 223 215 213 205 210 212 216 216 218 218 222 219 220 224 203 203 208 206 198 178 190 211